This is the latest recevied weather packets stored in our database for station/object DG4DAZ-6. If no packets are shown the sender has not sent any weather packets the latest 10 day(s).
| Time | Temp. | Humidity | Pressure | Rain* | Wind** | Luminosity | Snow |
|---|---|---|---|---|---|---|---|
| 1777474582 | 16.67° C | 31% | 1024.3 hPa | 0 mm | - | 43 W/m² | - |
| 1777473982 | 16.67° C | 31% | 1024.3 hPa | 0 mm | - | 45 W/m² | - |
| 1777473384 | 16.67° C | 31% | 1024.2 hPa | 0 mm | - | 51 W/m² | - |
| 1777472783 | 16.67° C | 31% | 1024.3 hPa | 0 mm | - | 294 W/m² | - |
| 1777472184 | 17.22° C | 30% | 1024.4 hPa | 0 mm | - | 626 W/m² | - |
| 1777471583 | 17.22° C | 31% | 1024.3 hPa | 0 mm | - | 646 W/m² | - |
| 1777470983 | 17.22° C | 30% | 1024.4 hPa | 0 mm | - | 664 W/m² | - |
| 1777470383 | 17.22° C | 32% | 1024.3 hPa | 0 mm | - | 675 W/m² | - |
| 1777469782 | 16.67° C | 32% | 1024.5 hPa | 0 mm | - | 699 W/m² | - |
| 1777469183 | 16.67° C | 30% | 1024.4 hPa | 0 mm | - | 713 W/m² | - |
| 1777468583 | 17.22° C | 31% | 1024.5 hPa | 0 mm | - | 729 W/m² | - |
| 1777467982 | 17.22° C | 31% | 1024.4 hPa | 0 mm | - | 741 W/m² | - |
| 1777467383 | 17.22° C | 32% | 1024.2 hPa | 0 mm | - | 749 W/m² | - |
| 1777466782 | 17.22° C | 33% | 1024.4 hPa | 0 mm | - | 303 W/m² | - |
| 1777466184 | 16.67° C | 32% | 1024.4 hPa | 0 mm | - | 770 W/m² | - |
| 1777465583 | 16.67° C | 33% | 1024.3 hPa | 0 mm | - | 782 W/m² | - |
| 1777464984 | 16.67° C | 32% | 1024.5 hPa | 0 mm | - | 788 W/m² | - |
| 1777464383 | 16.67° C | 33% | 1024.5 hPa | 0 mm | - | 794 W/m² | - |
| 1777463782 | 16.67° C | 33% | 1024.6 hPa | 0 mm | - | 797 W/m² | - |
| 1777463184 | 16.11° C | 33% | 1024.6 hPa | 0 mm | - | 803 W/m² | - |
| 1777462583 | 16.67° C | 32% | 1024.6 hPa | 0 mm | - | 803 W/m² | - |
| 1777461983 | 16.11° C | 32% | 1024.5 hPa | 0 mm | - | 804 W/m² | - |
| 1777461383 | 15.56° C | 32% | 1024.6 hPa | 0 mm | - | 671 W/m² | - |
| 1777460782 | 15.56° C | 33% | 1024.7 hPa | 0 mm | - | 792 W/m² | - |
| 1777460184 | 15.56° C | 33% | 1024.7 hPa | 0 mm | - | 425 W/m² | - |
* Rain latest hour (hover to see other rain measurements)
** Current wind speed in m/s (hover to see current wind gust speed)